Weather in Nikolo-Berezovka

Russia / Republic of Bashkortostan     56°07′41″N   54°10′17″E
temp.,
°C
wind,
m/s
gust,
m/s
humid.,
%
clouds,
%
prec.,
mm/h
press.,
hPa
HPBL,
m
27 february, sat
sat2723:00−20sse5139248 0.0 1016397
02:00−18se51491100 0.0 1012519
05:00−17se61391100 0.1 1009605
08:00−16se61394100 1.3 1005724
11:00−13se61293100 2.4 1004763
14:00−10se51089100 0.4 1003825
17:00−9se5991100 0.8 1002766
20:00−10ese51093100 0.7 1002536
28 february, sun
sun2823:00−11e41094100 1.2 1002457
02:00−13ene41094100 0.4 1002371
05:00−14ne4994100 0.8 1002352
08:00−13ne4994100 0.3 1003402
11:00−12nne4891100 0.4 1003423
14:00−10nne4889100 0.1 1005554
17:00−9nne4889100 0.2 1006623
20:00−12nne4992100 0.1 1008435
1 march, mon
mon123:00−14n389393 0.1 1011307
02:00−18n379680 0.0 1012148
05:00−20n359781 0.0 1015120
08:00−22n239724 0.0 101682
11:00−18n259212 0.0 1018267
14:00−13n238584 0.0 1019480
17:00−12nw248992 0.1 1019510
20:00−18nw129792 0.0 101920
2 march, tue
tue223:00−20wsw129751 0.0 101920
02:00−20ssw239936 0.0 101836
05:00−22ssw369953 0.0 1016127
08:00−20s4109499 0.0 1013287
11:00−17s5109299 0.0 1011346
14:00−13s61193100 0.2 1008477
17:00−11s61193100 0.8 1006606
20:00−11s51193100 0.6 1004577
3 march, wed
wed323:00−10s51193100 0.9 1003476
02:00−10sse4994100 0.4 1001428
05:00−10sse4995100 0.8 1000349
08:00−10se3695100 0.6 1000267
11:00−9e2494100 1.1 1000254
14:00−6ne2392100 0.4 1000355
17:00−6n2493100 0.8 1000454
20:00−8nnw3795100 0.4 1001365